ELECTRON KICK STAGE R/B, 59590

Orbit data source: Space-Track

ELECTRON KICK STAGE R/B, 59590 is space debris in SSO originally from a launch on Tue, 23 Apr 2024 UTC launched from the Rocket Lab Launch Complex (RLLC). Debris objects in space refer to the collection of defunct objects orbiting the Earth. Examples of debris include non-operational satellites, rocket bodies, and fragments generated from explosions, collisions, or faulty payload assembly.

Loading next visibility...
Identifier
59590, 2024-077D
Orbit
SSO
Country
Flag of USUS
Related business
Manufacturer
Rocket Lab
Mission
Spacecraft
Bus & Motor
KICK STAGE, CURIE
Mass
~50 kg wet, ~50 kg dry
Launch date (UTC)
2024-04-23 (1 year ago)
Launch vehicle
Unknown
Launch site
Rocket Lab Launch Complex (RLLC)
Object type
Payload
Rocket body
Debris
Shape & HBR
Unknown
Radar Cross Section
Medium (>0.1 m² and <1 m²)

Expand to show TLE details & history
Last TLE update: 15 hours ago

TLE from 15 hours ago
0 ELECTRON KICK STAGE R/B
1 59590U 24077D   25258.21954793  .00008193  00000-0  79660-3 0  9992
2 59590  97.3373 283.5915 0357181  40.9959 321.7511 14.55144520 73861
Epoch: 2025-09-15T05:16Z
TLE epoch observation values (Epoch: 2025-09-15T05:16:08.941Z)
Latitude
0.00002°
Longitude
-149.8731°
Altitude
516.68 km
Speed
7.709 km/s
True Right ascension
18h 54m 21s
True Declination
0° 00' 00"
Sunlit
Object was in daylight at epoch
Visualization orbit readout
Latitude
Unknown
Longitude
Unknown
Altitude
Unknown
Speed
Unknown
Apparent Right ascension
Unknown
Apparent Declination
Unknown
Sunlit
N/A
Visualization observer readout
Local Sidereal Time
12:57:27
Azimuth
Unknown
Elevation
Unknown
Doppler factor
Unknown
Orbital elements
Apogee altitude
958.97 km
Perigee altitude
452.91 km
Semi-major axis
7,084.077 km
Eccentricity
0.03572
Inclination
97.3373°
RAAN
283.5915°
Arg. of periapsis
40.9959°
True anomaly
319.1262°
Mean anomaly
321.7511°
Eccentric anomaly
320.44793°
Mean motion
3.64014 °/min
Orbital period
98.9 mins
BSTAR
0.0007966
Loading maneuver chart data...
Computing Atmospheric mass density...
Loading historical data...
Loading historical data...
Loading historical data...
Loading historical data...
Loading historical data...
Loading historical data...
Loading historical data...
Other satellites on launch #77 in the year 2024 (2024-04-23 UTC)

Documentation

Showing up to 5 results
|